Time,TemperatureF,DewpointF,PressureIn,WindDirection,WindDirectionDegrees,WindSpeedMPH,WindSpeedGustMPH,Humidity,HourlyPrecipIn,Conditions,Clouds,dailyrainin,SoftwareType,DateUTC
2013-05-26 00:00:00,49.7,20.9,21.57,West,270,0.2,0.2,32,0.00,,,0.00,WUHU216HW,2013-05-26 06:00:00,
2013-05-26 00:05:00,49.7,20.9,21.57,West,270,0.0,0.2,32,0.00,,,0.00,WUHU216HW,2013-05-26 06:05:00,
2013-05-26 00:10:00,49.7,20.9,21.57,West,270,0.0,0.0,32,0.00,,,0.00,WUHU216HW,2013-05-26 06:10:00,
2013-05-26 00:30:00,49.0,21.0,21.57,ESE,113,0.0,0.0,33,0.00,,,0.00,WUHU216HW,2013-05-26 06:30:00,
2013-05-26 00:35:00,49.0,21.0,21.57,SE,135,0.0,0.0,33,0.00,,,0.00,WUHU216HW,2013-05-26 06:35:00,
2013-05-26 00:40:00,49.0,21.0,21.57,SE,135,0.0,0.0,33,0.00,,,0.00,WUHU216HW,2013-05-26 06:40:00,
2013-05-26 01:00:00,47.9,20.7,21.58,North,0,0.0,0.0,34,0.00,,,0.00,WUHU216HW,2013-05-26 07:00:00,
2013-05-26 01:05:00,47.9,20.7,21.58,North,0,0.0,0.0,34,0.00,,,0.00,WUHU216HW,2013-05-26 07:05:00,
2013-05-26 01:10:00,47.9,20.7,21.58,North,0,0.0,0.0,34,0.00,,,0.00,WUHU216HW,2013-05-26 07:10:00,
2013-05-26 01:30:00,46.6,20.3,21.57,SE,135,0.0,0.0,35,0.00,,,0.00,WUHU216HW,2013-05-26 07:30:00,
2013-05-26 01:35:00,46.6,20.3,21.57,ESE,113,0.2,0.2,35,0.00,,,0.00,WUHU216HW,2013-05-26 07:35:00,
2013-05-26 01:40:00,46.6,20.3,21.57,ESE,113,0.2,0.2,35,0.00,,,0.00,WUHU216HW,2013-05-26 07:40:00,
2013-05-26 02:00:00,45.5,19.9,21.57,East,90,0.0,0.0,36,0.00,,,0.00,WUHU216HW,2013-05-26 08:00:00,
2013-05-26 02:05:00,45.5,19.9,21.57,East,90,0.0,0.0,36,0.00,,,0.00,WUHU216HW,2013-05-26 08:05:00,
2013-05-26 02:10:00,45.5,19.9,21.57,East,90,0.0,0.0,36,0.00,,,0.00,WUHU216HW,2013-05-26 08:10:00,
2013-05-26 02:30:00,44.8,20.0,21.56,East,90,0.0,0.0,37,0.00,,,0.00,WUHU216HW,2013-05-26 08:30:00,
2013-05-26 02:35:00,44.8,20.0,21.56,WSW,248,0.2,0.2,37,0.00,,,0.00,WUHU216HW,2013-05-26 08:35:00,
2013-05-26 02:40:00,44.8,20.0,21.56,WSW,248,0.2,0.2,37,0.00,,,0.00,WUHU216HW,2013-05-26 08:40:00,
2013-05-26 03:00:00,43.7,20.4,21.57,SSE,158,0.0,0.0,39,0.00,,,0.00,WUHU216HW,2013-05-26 09:00:00,
2013-05-26 03:05:00,43.7,20.4,21.57,SSE,158,0.0,0.0,39,0.00,,,0.00,WUHU216HW,2013-05-26 09:05:00,
2013-05-26 03:10:00,43.7,20.4,21.57,SSE,158,0.0,0.0,39,0.00,,,0.00,WUHU216HW,2013-05-26 09:10:00,
2013-05-26 03:30:00,42.8,20.2,21.56,West,270,0.0,0.0,40,0.00,,,0.00,WUHU216HW,2013-05-26 09:30:00,
2013-05-26 03:35:00,42.8,20.2,21.56,ENE,68,0.2,0.2,40,0.00,,,0.00,WUHU216HW,2013-05-26 09:35:00,
2013-05-26 03:40:00,42.8,20.2,21.56,ENE,68,0.2,0.2,40,0.00,,,0.00,WUHU216HW,2013-05-26 09:40:00,
2013-05-26 04:00:00,42.1,20.6,21.56,WSW,248,0.0,0.0,42,0.00,,,0.00,WUHU216HW,2013-05-26 10:00:00,
2013-05-26 04:05:00,42.1,20.6,21.56,WSW,248,0.0,0.0,42,0.00,,,0.00,WUHU216HW,2013-05-26 10:05:00,
2013-05-26 04:10:00,42.1,20.6,21.56,WSW,248,0.0,0.0,42,0.00,,,0.00,WUHU216HW,2013-05-26 10:10:00,
2013-05-26 04:30:00,41.8,20.8,21.56,WSW,248,0.0,0.0,43,0.00,,,0.00,WUHU216HW,2013-05-26 10:30:00,
2013-05-26 04:35:00,41.8,20.8,21.56,WSW,248,0.0,0.0,43,0.00,,,0.00,WUHU216HW,2013-05-26 10:35:00,
2013-05-26 04:40:00,41.8,20.8,21.56,WSW,248,0.0,0.0,43,0.00,,,0.00,WUHU216HW,2013-05-26 10:40:00,
2013-05-26 05:00:00,41.0,21.2,21.56,West,270,0.4,0.4,45,0.00,,,0.00,WUHU216HW,2013-05-26 11:00:00,
2013-05-26 05:05:00,41.0,21.2,21.56,West,270,0.2,0.4,45,0.00,,,0.00,WUHU216HW,2013-05-26 11:05:00,
2013-05-26 05:10:00,41.0,21.2,21.56,West,270,0.2,0.4,45,0.00,,,0.00,WUHU216HW,2013-05-26 11:10:00,
2013-05-26 05:30:00,40.5,20.7,21.56,West,270,0.0,0.0,45,0.00,,,0.00,WUHU216HW,2013-05-26 11:30:00,
2013-05-26 05:35:00,40.5,20.7,21.56,West,270,0.0,0.0,45,0.00,,,0.00,WUHU216HW,2013-05-26 11:35:00,
2013-05-26 05:40:00,40.5,20.7,21.56,West,270,0.0,0.0,45,0.00,,,0.00,WUHU216HW,2013-05-26 11:40:00,
2013-05-26 06:00:00,40.0,20.7,21.57,West,270,0.0,0.0,46,0.00,,,0.00,WUHU216HW,2013-05-26 12:00:00,
2013-05-26 06:05:00,40.0,20.7,21.57,West,270,0.0,0.0,46,0.00,,,0.00,WUHU216HW,2013-05-26 12:05:00,
2013-05-26 06:10:00,40.0,20.7,21.57,West,270,0.0,0.0,46,0.00,,,0.00,WUHU216HW,2013-05-26 12:10:00,
2013-05-26 06:30:00,39.6,20.9,21.57,WSW,248,0.0,0.0,47,0.00,,,0.00,WUHU216HW,2013-05-26 12:30:00,
2013-05-26 06:35:00,39.6,20.9,21.57,WSW,248,0.0,0.0,47,0.00,,,0.00,WUHU216HW,2013-05-26 12:35:00,
2013-05-26 06:40:00,39.6,20.9,21.57,WSW,248,0.0,0.0,47,0.00,,,0.00,WUHU216HW,2013-05-26 12:40:00,
2013-05-26 07:00:00,41.0,22.2,21.57,WSW,248,0.0,0.0,47,0.00,,,0.00,WUHU216HW,2013-05-26 13:00:00,
2013-05-26 07:05:00,41.0,22.2,21.57,WSW,248,0.0,0.0,47,0.00,,,0.00,WUHU216HW,2013-05-26 13:05:00,
2013-05-26 07:10:00,41.0,22.2,21.57,WSW,248,0.0,0.0,47,0.00,,,0.00,WUHU216HW,2013-05-26 13:10:00,
2013-05-26 07:30:00,42.5,23.6,21.57,WSW,248,0.0,0.0,47,0.00,,,0.00,WUHU216HW,2013-05-26 13:30:00,
2013-05-26 07:35:00,42.7,23.8,21.57,WSW,248,0.0,0.0,47,0.00,,,0.00,WUHU216HW,2013-05-26 13:35:00,
2013-05-26 07:40:00,42.7,23.8,21.57,WSW,248,0.0,0.0,47,0.00,,,0.00,WUHU216HW,2013-05-26 13:40:00,
2013-05-26 08:00:00,44.6,23.9,21.57,East,90,0.0,0.0,44,0.00,,,0.00,WUHU216HW,2013-05-26 14:00:00,
2013-05-26 08:05:00,44.6,23.9,21.57,East,90,0.0,0.0,44,0.00,,,0.00,WUHU216HW,2013-05-26 14:05:00,
2013-05-26 08:10:00,44.6,23.9,21.57,East,90,0.0,0.0,44,0.00,,,0.00,WUHU216HW,2013-05-26 14:10:00,
2013-05-26 08:30:00,47.0,24.4,21.57,East,90,0.0,0.0,41,0.00,,,0.00,WUHU216HW,2013-05-26 14:30:00,
2013-05-26 08:35:00,47.0,24.4,21.57,East,90,0.0,0.0,41,0.00,,,0.00,WUHU216HW,2013-05-26 14:35:00,
2013-05-26 08:40:00,47.0,24.4,21.57,East,90,0.0,0.0,41,0.00,,,0.00,WUHU216HW,2013-05-26 14:40:00,
2013-05-26 09:00:00,49.9,25.1,21.57,East,90,0.0,0.0,38,0.00,,,0.00,WUHU216HW,2013-05-26 15:00:00,
2013-05-26 09:05:00,49.9,25.1,21.57,East,90,1.1,1.1,38,0.00,,,0.00,WUHU216HW,2013-05-26 15:05:00,
2013-05-26 09:10:00,49.9,25.1,21.57,East,90,1.1,1.1,38,0.00,,,0.00,WUHU216HW,2013-05-26 15:10:00,
2013-05-26 09:30:00,53.8,25.2,21.56,WNW,293,0.4,0.4,33,0.00,,,0.00,WUHU216HW,2013-05-26 15:30:00,
2013-05-26 09:35:00,53.8,25.2,21.56,WNW,293,0.4,0.4,33,0.00,,,0.00,WUHU216HW,2013-05-26 15:35:00,
2013-05-26 09:40:00,53.8,25.2,21.56,WNW,293,0.4,0.4,33,0.00,,,0.00,WUHU216HW,2013-05-26 15:40:00,
2013-05-26 10:00:00,57.2,25.1,21.55,East,90,0.2,0.2,29,0.00,,,0.00,WUHU216HW,2013-05-26 16:00:00,
2013-05-26 10:05:00,57.2,25.1,21.55,ENE,68,0.2,0.2,29,0.00,,,0.00,WUHU216HW,2013-05-26 16:05:00,
2013-05-26 10:10:00,57.2,25.1,21.55,ENE,68,0.2,0.2,29,0.00,,,0.00,WUHU216HW,2013-05-26 16:10:00,
2013-05-26 10:30:00,60.1,17.4,21.54,West,270,1.1,1.1,19,0.00,,,0.00,WUHU216HW,2013-05-26 16:30:00,
2013-05-26 10:35:00,60.1,17.4,21.54,West,270,1.1,1.1,19,0.00,,,0.00,WUHU216HW,2013-05-26 16:35:00,
2013-05-26 10:40:00,60.1,17.4,21.54,West,270,1.1,1.1,19,0.00,,,0.00,WUHU216HW,2013-05-26 16:40:00,
2013-05-26 11:00:00,61.2,12.1,21.54,WNW,293,8.5,8.5,15,0.00,,,0.00,WUHU216HW,2013-05-26 17:00:00,
2013-05-26 11:05:00,61.2,13.7,21.54,South,180,1.3,8.5,16,0.00,,,0.00,WUHU216HW,2013-05-26 17:05:00,
2013-05-26 11:10:00,61.2,13.7,21.54,South,180,1.3,4.0,16,0.00,,,0.00,WUHU216HW,2013-05-26 17:10:00,
2013-05-26 11:30:00,63.4,15.3,21.53,East,90,2.7,2.7,16,0.00,,,0.00,WUHU216HW,2013-05-26 17:30:00,
2013-05-26 11:35:00,63.4,15.3,21.53,ENE,68,2.2,2.7,16,0.00,,,0.00,WUHU216HW,2013-05-26 17:35:00,
2013-05-26 11:40:00,63.4,15.3,21.53,ENE,68,2.2,2.7,16,0.00,,,0.00,WUHU216HW,2013-05-26 17:40:00,
2013-05-26 12:00:00,64.3,14.4,21.53,WNW,293,0.7,0.7,15,0.00,,,0.00,WUHU216HW,2013-05-26 18:00:00,
2013-05-26 12:05:00,64.4,14.6,21.53,WNW,293,0.7,0.7,15,0.00,,,0.00,WUHU216HW,2013-05-26 18:05:00,
2013-05-26 12:10:00,64.4,14.6,21.53,WNW,293,0.7,0.7,15,0.00,,,0.00,WUHU216HW,2013-05-26 18:10:00,
2013-05-26 12:30:00,65.7,12.4,21.52,NNW,338,4.3,4.3,13,0.00,,,0.00,WUHU216HW,2013-05-26 18:30:00,
2013-05-26 12:35:00,65.7,12.4,21.52,North,0,3.4,4.3,13,0.00,,,0.00,WUHU216HW,2013-05-26 18:35:00,
2013-05-26 12:40:00,65.7,12.4,21.52,North,0,3.4,4.3,13,0.00,,,0.00,WUHU216HW,2013-05-26 18:40:00,
2013-05-26 13:00:00,68.0,17.6,21.52,WSW,248,0.0,0.0,15,0.00,,,0.00,WUHU216HW,2013-05-26 19:00:00,
2013-05-26 13:05:00,68.0,17.6,21.52,WSW,248,0.2,0.2,15,0.00,,,0.00,WUHU216HW,2013-05-26 19:05:00,
2013-05-26 13:10:00,68.0,17.6,21.52,WSW,248,0.2,0.2,15,0.00,,,0.00,WUHU216HW,2013-05-26 19:10:00,
2013-05-26 13:30:00,68.6,13.2,21.51,West,270,5.8,5.8,12,0.00,,,0.00,WUHU216HW,2013-05-26 19:30:00,
2013-05-26 13:35:00,68.6,13.2,21.51,WSW,248,9.2,9.2,12,0.00,,,0.00,WUHU216HW,2013-05-26 19:35:00,
2013-05-26 13:40:00,68.6,13.2,21.51,WSW,248,9.2,9.2,12,0.00,,,0.00,WUHU216HW,2013-05-26 19:40:00,
2013-05-26 14:00:00,68.4,14.6,21.51,NW,315,0.9,0.9,13,0.00,,,0.00,WUHU216HW,2013-05-26 20:00:00,
2013-05-26 14:05:00,68.4,14.6,21.51,East,90,0.4,0.9,13,0.00,,,0.00,WUHU216HW,2013-05-26 20:05:00,
2013-05-26 14:10:00,68.4,14.6,21.51,East,90,0.4,0.4,13,0.00,,,0.00,WUHU216HW,2013-05-26 20:10:00,
2013-05-26 14:30:00,68.4,13.0,21.50,West,270,4.0,4.0,12,0.00,,,0.00,WUHU216HW,2013-05-26 20:30:00,
2013-05-26 14:35:00,68.4,13.0,21.50,East,90,3.4,4.5,12,0.00,,,0.00,WUHU216HW,2013-05-26 20:35:00,
2013-05-26 14:40:00,68.4,13.0,21.50,East,90,3.4,4.5,12,0.00,,,0.00,WUHU216HW,2013-05-26 20:40:00,
2013-05-26 15:00:00,68.8,11.6,21.49,SE,135,5.4,5.4,11,0.00,,,0.00,WUHU216HW,2013-05-26 21:00:00,
2013-05-26 15:05:00,68.8,11.6,21.49,SE,135,5.4,5.4,11,0.00,,,0.00,WUHU216HW,2013-05-26 21:05:00,
2013-05-26 15:10:00,68.8,11.6,21.49,SE,135,5.4,5.4,11,0.00,,,0.00,WUHU216HW,2013-05-26 21:10:00,
2013-05-26 15:30:00,68.0,11.2,21.50,West,270,2.5,2.5,11,0.00,,,0.00,WUHU216HW,2013-05-26 21:30:00,
2013-05-26 15:35:00,68.2,11.3,21.50,West,270,2.5,2.5,11,0.00,,,0.00,WUHU216HW,2013-05-26 21:35:00,
2013-05-26 15:40:00,68.2,11.3,21.50,West,270,2.5,2.5,11,0.00,,,0.00,WUHU216HW,2013-05-26 21:40:00,
2013-05-26 16:00:00,68.8,13.2,21.50,West,270,3.1,3.1,12,0.00,,,0.00,WUHU216HW,2013-05-26 22:00:00,
2013-05-26 16:05:00,68.8,13.2,21.50,West,270,3.4,3.4,12,0.00,,,0.00,WUHU216HW,2013-05-26 22:05:00,
2013-05-26 16:10:00,68.8,13.2,21.50,West,270,3.4,3.4,12,0.00,,,0.00,WUHU216HW,2013-05-26 22:10:00,
2013-05-26 16:30:00,68.4,16.2,21.49,WNW,293,0.2,0.2,14,0.00,,,0.00,WUHU216HW,2013-05-26 22:30:00,
2013-05-26 16:35:00,68.4,14.6,21.49,West,270,3.4,3.4,13,0.00,,,0.00,WUHU216HW,2013-05-26 22:35:00,
2013-05-26 16:40:00,68.4,14.6,21.49,West,270,3.4,3.4,13,0.00,,,0.00,WUHU216HW,2013-05-26 22:40:00,
2013-05-26 17:00:00,68.4,16.2,21.48,West,270,2.0,2.0,14,0.00,,,0.00,WUHU216HW,2013-05-26 23:00:00,
2013-05-26 17:05:00,68.4,16.2,21.48,NW,315,1.6,2.0,14,0.00,,,0.00,WUHU216HW,2013-05-26 23:05:00,
2013-05-26 17:10:00,68.4,16.2,21.48,NW,315,1.6,2.0,14,0.00,,,0.00,WUHU216HW,2013-05-26 23:10:00,
2013-05-26 17:30:00,67.9,17.4,21.48,West,270,1.1,1.1,15,0.00,,,0.00,WUHU216HW,2013-05-26 23:30:00,
2013-05-26 17:35:00,67.9,17.4,21.47,West,270,0.7,1.1,15,0.00,,,0.00,WUHU216HW,2013-05-26 23:35:00,
2013-05-26 18:00:00,69.8,15.7,21.47,WNW,293,1.3,1.3,13,0.00,,,0.00,WUHU216HW,2013-05-27 00:00:00,
2013-05-26 18:05:00,69.8,15.7,21.47,WNW,293,1.3,1.3,13,0.00,,,0.00,WUHU216HW,2013-05-27 00:05:00,
2013-05-26 18:10:00,69.8,15.7,21.47,WNW,293,1.3,1.3,13,0.00,,,0.00,WUHU216HW,2013-05-27 00:10:00,
2013-05-26 18:30:00,69.3,15.3,21.47,West,270,6.0,6.0,13,0.00,,,0.00,WUHU216HW,2013-05-27 00:30:00,
2013-05-26 18:35:00,69.3,15.3,21.47,North,0,2.7,6.0,13,0.00,,,0.00,WUHU216HW,2013-05-27 00:35:00,
2013-05-26 18:40:00,69.3,15.3,21.47,North,0,2.7,2.7,13,0.00,,,0.00,WUHU216HW,2013-05-27 00:40:00,
2013-05-26 19:00:00,67.3,16.9,21.48,NNE,23,1.8,1.8,15,0.00,,,0.00,WUHU216HW,2013-05-27 01:00:00,
2013-05-26 19:05:00,67.1,16.8,21.48,West,270,0.4,1.8,15,0.00,,,0.00,WUHU216HW,2013-05-27 01:05:00,
2013-05-26 19:30:00,66.6,17.9,21.49,ENE,68,0.7,0.7,16,0.00,,,0.00,WUHU216HW,2013-05-27 01:30:00,
2013-05-26 19:35:00,66.6,17.9,21.49,WSW,248,0.4,1.1,16,0.00,,,0.00,WUHU216HW,2013-05-27 01:35:00,
2013-05-26 19:40:00,66.6,17.9,21.49,WSW,248,0.4,1.1,16,0.00,,,0.00,WUHU216HW,2013-05-27 01:40:00,
2013-05-26 20:00:00,68.0,23.9,21.50,West,270,0.9,0.9,19,0.00,,,0.00,WUHU216HW,2013-05-27 02:00:00,
2013-05-26 20:05:00,68.0,23.9,21.50,West,270,0.0,0.9,19,0.00,,,0.00,WUHU216HW,2013-05-27 02:05:00,
2013-05-26 20:30:00,64.4,24.5,21.51,ESE,113,0.0,0.0,22,0.00,,,0.00,WUHU216HW,2013-05-27 02:30:00,
2013-05-26 20:35:00,64.4,24.5,21.51,ESE,113,0.0,0.0,22,0.00,,,0.00,WUHU216HW,2013-05-27 02:35:00,
2013-05-26 21:00:00,59.0,22.9,21.51,West,270,4.0,4.0,25,0.00,,,0.00,WUHU216HW,2013-05-27 03:00:00,
2013-05-26 21:05:00,58.9,22.7,21.51,West,270,2.9,4.0,25,0.00,,,0.00,WUHU216HW,2013-05-27 03:05:00,
2013-05-26 21:10:00,58.9,22.7,21.51,West,270,2.9,4.0,25,0.00,,,0.00,WUHU216HW,2013-05-27 03:10:00,
2013-05-26 21:30:00,54.4,24.3,21.52,WNW,293,6.0,6.0,31,0.00,,,0.00,WUHU216HW,2013-05-27 03:30:00,
2013-05-26 21:31:00,54.4,24.3,21.52,NNW,338,5.1,5.1,31,0.00,,,0.00,WUHU216HW,2013-05-27 03:31:00,
2013-05-26 21:35:00,54.4,24.3,21.52,NNW,338,5.1,6.0,31,0.00,,,0.00,WUHU216HW,2013-05-27 03:35:00,
2013-05-26 21:40:00,54.4,24.3,21.52,NNW,338,5.1,5.1,31,0.00,,,0.00,WUHU216HW,2013-05-27 03:40:00,
2013-05-26 22:00:00,52.6,24.9,21.53,West,270,7.8,7.8,34,0.00,,,0.00,WUHU216HW,2013-05-27 04:00:00,
2013-05-26 22:01:00,52.6,24.9,21.53,West,270,6.3,8.3,34,0.00,,,0.00,WUHU216HW,2013-05-27 04:01:00,
2013-05-26 22:02:00,52.6,24.9,21.53,West,270,6.3,8.3,34,0.00,,,0.00,WUHU216HW,2013-05-27 04:02:00,
2013-05-26 22:07:00,52.6,24.9,21.53,West,270,6.3,8.3,34,0.00,,,0.00,WUHU216HW,2013-05-27 04:07:00,
2013-05-26 22:30:00,51.7,24.7,21.54,WNW,293,1.8,1.8,35,0.00,,,0.00,WUHU216HW,2013-05-27 04:30:00,
2013-05-26 22:35:00,51.7,24.7,21.54,West,270,1.3,1.8,35,0.00,,,0.00,WUHU216HW,2013-05-27 04:35:00,
2013-05-26 22:40:00,51.7,24.7,21.54,West,270,1.3,1.8,35,0.00,,,0.00,WUHU216HW,2013-05-27 04:40:00,
2013-05-26 23:00:00,50.2,24.0,21.54,West,270,4.3,4.3,36,0.00,,,0.00,WUHU216HW,2013-05-27 05:00:00,
2013-05-26 23:05:00,50.2,24.0,21.54,WSW,248,1.6,4.7,36,0.00,,,0.00,WUHU216HW,2013-05-27 05:05:00,
2013-05-26 23:10:00,50.2,24.0,21.54,WSW,248,1.6,4.7,36,0.00,,,0.00,WUHU216HW,2013-05-27 05:10:00,
2013-05-26 23:30:00,49.9,23.8,21.53,NNW,338,0.7,0.7,36,0.00,,,0.00,WUHU216HW,2013-05-27 05:30:00,
2013-05-26 23:35:00,49.9,23.8,21.53,NNW,338,0.7,0.7,36,0.00,,,0.00,WUHU216HW,2013-05-27 05:35:00,
2013-05-26 23:40:00,49.9,23.8,21.53,NNW,338,0.7,0.7,36,0.00,,,0.00,WUHU216HW,2013-05-27 05:40:00,